• în România
  • Lista ţărilor
  • Pe 7 zile
  • Temperatura apei
  • Hartă satelitară
  • Meteo pe hartă
  • Widget-uri
  • user-avatar
    Intrare

    Meteo pe oră la Porech

    Astăzi, 20 Septembrie, Joi

    Timp Temperatura Precipitaţii Vânt Presiune Umiditate
    00:00 +22°C° 0 mm 3 m/s 764 mmHg 76%
    01:00 +22°C° 0 mm 3 m/s 763 mmHg 78%
    02:00 +22°C° 0 mm 3 m/s 763 mmHg 77%
    03:00 +22°C° 0 mm 3 m/s 763 mmHg 76%
    04:00 +22°C° 0 mm 4 m/s 763 mmHg 76%
    05:00 +22°C° 0 mm 4 m/s 763 mmHg 75%
    06:00 +22°C° 0 mm 4 m/s 763 mmHg 74%
    07:00 +23°C° 0 mm 4 m/s 763 mmHg 70%
    08:00 +26°C° 0 mm 4 m/s 763 mmHg 63%
    09:00 +28°C° 0 mm 3 m/s 763 mmHg 56%
    10:00 +29°C° 0 mm 3 m/s 763 mmHg 49%
    11:00 +30°C° 0 mm 3 m/s 763 mmHg 47%
    12:00 +31°C° 0 mm 2 m/s 763 mmHg 44%
    13:00 +32°C° 0 mm 2 m/s 762 mmHg 41%
    14:00 +31°C° 0 mm 2 m/s 762 mmHg 43%
    15:00 +31°C° 0 mm 2 m/s 762 mmHg 45%
    16:00 +30°C° 0 mm 2 m/s 762 mmHg 46%
    17:00 +29°C° 0 mm 1 m/s 762 mmHg 53%
    18:00 +27°C° 0 mm 1 m/s 762 mmHg 59%
    19:00 +25°C° 0 mm 1 m/s 762 mmHg 65%
    20:00 +25°C° 0 mm 1 m/s 762 mmHg 67%
    21:00 +24°C° 0 mm 2 m/s 762 mmHg 69%
    22:00 +24°C° 0 mm 2 m/s 762 mmHg 71%
    23:00 +23°C° 0 mm 2 m/s 762 mmHg 71%

    Mâine, 21 Septembrie, Vineri

    Timp Temperatura Precipitaţii Vânt Presiune Umiditate
    00:00 +23°C° 0 mm 2 m/s 762 mmHg 71%
    01:00 +23°C° 0 mm 2 m/s 762 mmHg 71%
    02:00 +23°C° 0 mm 2 m/s 762 mmHg 71%
    03:00 +21°C° 0 mm 2 m/s 761 mmHg 71%
    04:00 +21°C° 0 mm 2 m/s 761 mmHg 71%
    05:00 +21°C° 0 mm 2 m/s 761 mmHg 71%
    06:00 +23°C° 0 mm 2 m/s 761 mmHg 71%
    07:00 +23°C° 0 mm 2 m/s 761 mmHg 71%
    08:00 +25°C° 0 mm 2 m/s 761 mmHg 63%
    09:00 +28°C° 0 mm 1 m/s 761 mmHg 56%
    10:00 +30°C° 0 mm 1 m/s 761 mmHg 48%
    11:00 +30°C° 0 mm 1 m/s 760 mmHg 48%
    12:00 +30°C° 0 mm 2 m/s 760 mmHg 47%
    13:00 +30°C° 0 mm 2 m/s 760 mmHg 47%
    14:00 +30°C° 0 mm 2 m/s 760 mmHg 51%
    15:00 +29°C° 0 mm 2 m/s 759 mmHg 54%
    16:00 +29°C° 0 mm 2 m/s 759 mmHg 57%
    17:00 +27°C° 0 mm 3 m/s 759 mmHg 64%
    18:00 +25°C° 0 mm 3 m/s 759 mmHg 71%
    19:00 +24°C° 0 mm 3 m/s 760 mmHg 79%
    20:00 +22°C° 0 mm 3 m/s 760 mmHg 80%
    21:00 +22°C° 0 mm 3 m/s 760 mmHg 81%
    22:00 +22°C° 0 mm 3 m/s 760 mmHg 82%
    23:00 +22°C° 0 mm 3 m/s 760 mmHg 82%

    Poimâine, 22 Septembrie, Sâmbătă

    Timp Temperatura Precipitaţii Vânt Presiune Umiditate
    00:00 +21°C° 0 mm 3 m/s 760 mmHg 82%
    01:00 +21°C° 0 mm 3 m/s 760 mmHg 83%
    02:00 +21°C° 0.1 mm 3 m/s 760 mmHg 84%
    03:00 +21°C° 0.1 mm 3 m/s 760 mmHg 86%
    04:00 +21°C° 0.1 mm 3 m/s 760 mmHg 87%
    05:00 +22°C° 0.2 mm 4 m/s 760 mmHg 87%
    06:00 +22°C° 0.2 mm 4 m/s 761 mmHg 87%
    07:00 +22°C° 0.2 mm 4 m/s 761 mmHg 87%
    08:00 +25°C° 0.4 mm 4 m/s 761 mmHg 83%
    09:00 +26°C° 0.4 mm 4 m/s 762 mmHg 79%
    10:00 +27°C° 0.4 mm 5 m/s 762 mmHg 75%
    11:00 +26°C° 0.5 mm 5 m/s 762 mmHg 74%
    12:00 +26°C° 0.5 mm 4 m/s 762 mmHg 74%
    13:00 +25°C° 0.5 mm 4 m/s 762 mmHg 73%
    14:00 +23°C° 0.2 mm 5 m/s 762 mmHg 69%
    15:00 +23°C° 0.2 mm 7 m/s 762 mmHg 65%
    16:00 +22°C° 0.2 mm 8 m/s 762 mmHg 61%
    17:00 +20°C° 0 mm 8 m/s 763 mmHg 63%
    18:00 +18°C° 0 mm 8 m/s 763 mmHg 66%
    19:00 +17°C° 0 mm 8 m/s 763 mmHg 69%
    20:00 +17°C° 0 mm 8 m/s 764 mmHg 68%
    21:00 +16°C° 0 mm 7 m/s 764 mmHg 68%
    22:00 +16°C° 0 mm 6 m/s 765 mmHg 68%
    23:00 +16°C° 0 mm 6 m/s 765 mmHg 68%

    23 Septembrie, Duminică

    Timp Temperatura Precipitaţii Vânt Presiune Umiditate
    00:00 +16°C° 0 mm 6 m/s 765 mmHg 67%
    01:00 +16°C° 0 mm 6 m/s 765 mmHg 66%
    02:00 +16°C° 0 mm 5 m/s 765 mmHg 66%
    03:00 +17°C° 0 mm 5 m/s 765 mmHg 65%
    04:00 +18°C° 0 mm 4 m/s 765 mmHg 64%
    05:00 +18°C° 0 mm 4 m/s 765 mmHg 65%
    06:00 +18°C° 0 mm 4 m/s 765 mmHg 66%
    07:00 +18°C° 0 mm 3 m/s 765 mmHg 68%
    08:00 +20°C° 0 mm 3 m/s 765 mmHg 65%
    09:00 +23°C° 0 mm 2 m/s 765 mmHg 63%
    10:00 +24°C° 0 mm 2 m/s 765 mmHg 60%
    11:00 +26°C° 0 mm 2 m/s 765 mmHg 58%
    12:00 +27°C° 0 mm 1 m/s 765 mmHg 57%
    13:00 +28°C° 0 mm 1 m/s 764 mmHg 55%
    14:00 +28°C° 0 mm 1 m/s 764 mmHg 57%
    15:00 +27°C° 0 mm 2 m/s 763 mmHg 60%
    16:00 +27°C° 0 mm 2 m/s 763 mmHg 62%
    17:00 +25°C° 0 mm 2 m/s 763 mmHg 69%
    18:00 +24°C° 0 mm 2 m/s 763 mmHg 76%
    19:00 +21°C° 0 mm 2 m/s 763 mmHg 83%
    20:00 +21°C° 0 mm 2 m/s 763 mmHg 85%
    21:00 +21°C° 0 mm 2 m/s 763 mmHg 86%
    22:00 +20°C° 0 mm 2 m/s 762 mmHg 88%
    23:00 +21°C° 0 mm 3 m/s 762 mmHg 89%

    24 Septembrie, Luni

    Timp Temperatura Precipitaţii Vânt Presiune Umiditate
    00:00 +21°C° 0 mm 3 m/s 761 mmHg 89%
    01:00 +21°C° 0 mm 3 m/s 760 mmHg 90%
    02:00 +22°C° 0 mm 4 m/s 760 mmHg 90%
    03:00 +23°C° 0 mm 5 m/s 759 mmHg 90%
    04:00 +23°C° 0 mm 6 m/s 759 mmHg 90%
    05:00 +23°C° 0 mm 5 m/s 758 mmHg 90%
    06:00 +23°C° 0 mm 5 m/s 758 mmHg 90%
    07:00 +23°C° 0 mm 5 m/s 758 mmHg 90%
    08:00 +25°C° 0.1 mm 4 m/s 758 mmHg 87%
    09:00 +25°C° 0.1 mm 3 m/s 759 mmHg 85%
    10:00 +26°C° 0.1 mm 2 m/s 759 mmHg 82%
    11:00 +26°C° 0.2 mm 2 m/s 759 mmHg 80%
    12:00 +27°C° 0.2 mm 2 m/s 759 mmHg 78%
    13:00 +27°C° 0.2 mm 2 m/s 759 mmHg 75%
    14:00 +25°C° 0.4 mm 3 m/s 760 mmHg 77%
    15:00 +23°C° 0.4 mm 4 m/s 760 mmHg 78%
    16:00 +21°C° 0.4 mm 6 m/s 760 mmHg 79%
    17:00 +18°C° 0.4 mm 9 m/s 761 mmHg 75%
    18:00 +17°C° 0.4 mm 11 m/s 762 mmHg 71%
    19:00 +15°C° 0.4 mm 14 m/s 763 mmHg 67%
    20:00 +15°C° 0.2 mm 14 m/s 764 mmHg 64%
    21:00 +15°C° 0.2 mm 15 m/s 765 mmHg 61%
    22:00 +14°C° 0.2 mm 15 m/s 766 mmHg 58%
    23:00 +14°C° 0.1 mm 14 m/s 767 mmHg 56%

    25 Septembrie, Marţi

    Timp Temperatura Precipitaţii Vânt Presiune Umiditate
    00:00 +14°C° 0.1 mm 13 m/s 767 mmHg 54%
    01:00 +14°C° 0.1 mm 12 m/s 768 mmHg 52%
    02:00 +14°C° 0 mm 11 m/s 768 mmHg 53%
    03:00 +13°C° 0 mm 11 m/s 769 mmHg 53%
    04:00 +13°C° 0 mm 10 m/s 769 mmHg 54%
    05:00 +12°C° 0 mm 10 m/s 770 mmHg 54%
    06:00 +12°C° 0 mm 11 m/s 770 mmHg 55%
    07:00 +12°C° 0 mm 11 m/s 770 mmHg 56%
    08:00 +13°C° 0 mm 11 m/s 771 mmHg 51%
    09:00 +14°C° 0 mm 10 m/s 771 mmHg 47%
    10:00 +16°C° 0 mm 10 m/s 771 mmHg 42%
    11:00 +16°C° 0 mm 10 m/s 771 mmHg 40%
    12:00 +17°C° 0 mm 10 m/s 771 mmHg 38%
    13:00 +18°C° 0 mm 10 m/s 771 mmHg 35%
    14:00 +17°C° 0 mm 10 m/s 771 mmHg 35%
    15:00 +17°C° 0 mm 10 m/s 771 mmHg 35%
    16:00 +17°C° 0 mm 10 m/s 771 mmHg 35%
    17:00 +16°C° 0 mm 11 m/s 772 mmHg 38%
    18:00 +14°C° 0 mm 11 m/s 772 mmHg 42%
    19:00 +13°C° 0 mm 12 m/s 773 mmHg 45%
    20:00 +12°C° 0 mm 12 m/s 774 mmHg 46%
    21:00 +12°C° 0 mm 12 m/s 774 mmHg 48%
    22:00 +10°C° 0 mm 12 m/s 775 mmHg 49%
    23:00 +10°C° 0 mm 12 m/s 775 mmHg 50%
    Arată mai mult